Volver al catálogo

COSMOS 1864

ActivoMilitarPO
NORAD 18160·PAYLOAD·🇷🇺 Russia

Lanzado Jul 6, 1987 desde Plesetsk Cosmodrome

Loading…

Próximos Pases (próximas 24 horas)

TLE

ActualizadoSource: Space-Track

Época: Sep 14, 2026, 08:05 UTC

1 18160U 87057A   26257.33726440  .00000036  00000-0  21619-4 0  9996
2 18160  82.9291  99.9397 0030822 306.7653 226.5809 13.75821942947116

Sigue COSMOS 1864 en tiempo real con AllMySat

Download on the App Store